| time (UTC) | temp F | wind direction | speed MPH | gust MPH | rain 1hr in | rain 24hr in | rain mn in | humidity % | barometer mb |
| 20260505072521 | 51 | 111 | 0.0 | 0.0 | 0.00 | 0.00 | 0.00 | 70 | 1007.9 |
| 20260505072017 | 51 | 128 | 0.0 | 0.0 | 0.00 | 0.00 | 0.00 | 70 | 1008.0 |
| 20260505071513 | 51 | 119 | 0.0 | 0.0 | 0.00 | 0.00 | 0.00 | 69 | 1007.8 |
| 20260505071011 | 52 | 135 | 0.0 | 0.0 | 0.00 | 0.00 | 0.00 | 68 | 1008.1 |
| 20260505070508 | 52 | 135 | 0.0 | 0.0 | 0.00 | 0.00 | 0.00 | 68 | 1007.9 |
| 20260505070004 | 52 | 152 | 0.0 | 0.0 | 0.00 | 0.00 | 0.00 | 68 | 1008.0 |
| 20260505065500 | 52 | 147 | 0.0 | 0.0 | 0.00 | 0.00 | 0.00 | 68 | 1007.8 |
| 20260505064956 | 52 | 118 | 0.0 | 0.0 | 0.00 | 0.00 | 0.00 | 68 | 1007.9 |
| 20260505064453 | 52 | 95 | 0.0 | 0.0 | 0.00 | 0.00 | 0.00 | 67 | 1007.9 |
| 20260505063952 | 53 | 115 | 0.0 | 0.0 | 0.00 | 0.00 | 0.00 | 66 | 1007.9 |
| 20260505063448 | 53 | 107 | 0.0 | 0.0 | 0.00 | 0.00 | 0.00 | 65 | 1008.1 |
| 20260505062945 | 53 | 107 | 0.0 | 1.0 | 0.00 | 0.00 | 0.00 | 64 | 1008.0 |
| 20260505062442 | 53 | 126 | 0.0 | 0.0 | 0.00 | 0.00 | 0.00 | 65 | 1008.3 |
| 20260505061938 | 53 | 145 | 1.0 | 1.0 | 0.00 | 0.00 | 0.00 | 65 | 1008.2 |
| 20260505061437 | 54 | 112 | 0.0 | 0.0 | 0.00 | 0.00 | 0.00 | 63 | 1008.1 |
| 20260505060934 | 53 | 147 | 0.0 | 2.0 | 0.00 | 0.00 | 0.00 | 63 | 1008.2 |
| 20260505060431 | 54 | 120 | 0.0 | 0.0 | 0.00 | 0.00 | 0.00 | 63 | 1008.2 |
| 20260505055927 | 54 | 119 | 0.0 | 0.0 | 0.00 | 0.00 | 0.00 | 62 | 1008.2 |
| 20260505055423 | 54 | 81 | 0.0 | 1.0 | 0.00 | 0.00 | 0.00 | 62 | 1008.1 |
| 20260505054920 | 55 | 110 | 0.0 | 1.0 | 0.00 | 0.00 | 0.00 | 61 | 1008.4 |
| 20260505054417 | 54 | 121 | 0.0 | 2.0 | 0.00 | 0.00 | 0.00 | 62 | 1008.5 |
| 20260505053915 | 54 | 141 | 0.0 | 1.0 | 0.00 | 0.00 | 0.00 | 62 | 1008.4 |
| 20260505053412 | 54 | 128 | 0.0 | 1.0 | 0.00 | 0.00 | 0.00 | 62 | 1008.2 |
| 20260505052909 | 55 | 132 | 0.0 | 0.0 | 0.00 | 0.00 | 0.00 | 62 | 1008.4 |
| 20260505052406 | 55 | 140 | 0.0 | 1.0 | 0.00 | 0.00 | 0.00 | 61 | 1008.3 |
| 20260505051903 | 55 | 124 | 0.0 | 0.0 | 0.00 | 0.00 | 0.00 | 61 | 1008.2 |
| 20260505051400 | 55 | 143 | 0.0 | 0.0 | 0.00 | 0.00 | 0.00 | 60 | 1008.3 |
| 20260505050858 | 55 | 126 | 0.0 | 2.0 | 0.00 | 0.00 | 0.00 | 60 | 1008.1 |
| 20260505050357 | 55 | 111 | 0.0 | 1.0 | 0.00 | 0.00 | 0.00 | 60 | 1008.2 |
| 20260505041324 | 57 | 119 | 0.0 | 0.0 | 0.00 | 0.00 | 0.00 | 55 | 1008.0 |
| 20260505040821 | 57 | 123 | 0.0 | 0.0 | 0.00 | 0.00 | 0.00 | 55 | 1008.0 |
| 20260505040319 | 58 | 141 | 0.0 | 1.0 | 0.00 | 0.00 | 0.00 | 54 | 1008.0 |
| 20260505035815 | 58 | 99 | 2.0 | 2.0 | 0.00 | 0.00 | 0.00 | 54 | 1007.8 |
| 20260505035311 | 58 | 127 | 1.0 | 4.0 | 0.00 | 0.00 | 0.00 | 53 | 1008.0 |
| 20260505034808 | 58 | 95 | 0.0 | 1.0 | 0.00 | 0.00 | 0.00 | 53 | 1007.8 |
| 20260505034305 | 58 | 194 | 3.0 | 4.0 | 0.00 | 0.00 | 0.00 | 52 | 1007.8 |
| 20260505033802 | 59 | 121 | 0.0 | 2.0 | 0.00 | 0.00 | 0.00 | 53 | 1007.6 |
| 20260505033259 | 59 | 148 | 1.0 | 1.0 | 0.00 | 0.00 | 0.00 | 52 | 1007.8 |
| 20260505032757 | 59 | 197 | 2.0 | 2.0 | 0.00 | 0.00 | 0.00 | 51 | 1008.0 |
| 20260505032253 | 60 | 138 | 0.0 | 3.0 | 0.00 | 0.00 | 0.00 | 51 | 1007.7 |
| 20260505031750 | 60 | 101 | 2.0 | 4.0 | 0.00 | 0.00 | 0.00 | 50 | 1007.6 |
| 20260505031246 | 60 | 138 | 1.0 | 3.0 | 0.00 | 0.00 | 0.00 | 50 | 1007.6 |
| 20260505030744 | 60 | 193 | 2.0 | 6.0 | 0.00 | 0.00 | 0.00 | 50 | 1007.6 |
| 20260505030240 | 61 | 87 | 2.0 | 3.0 | 0.00 | 0.00 | 0.00 | 49 | 1007.8 |
| 20260505025735 | 61 | 157 | 1.0 | 4.0 | 0.00 | 0.00 | 0.00 | 49 | 1007.6 |
| 20260505025234 | 61 | 106 | 1.0 | 3.0 | 0.00 | 0.00 | 0.00 | 49 | 1007.6 |
| 20260505024732 | 61 | 85 | 0.0 | 2.0 | 0.00 | 0.00 | 0.00 | 49 | 1007.4 |
| 20260505024229 | 61 | 175 | 3.0 | 4.0 | 0.00 | 0.00 | 0.00 | 48 | 1007.5 |
| 20260505023726 | 61 | 35 | 1.0 | 3.0 | 0.00 | 0.00 | 0.00 | 48 | 1007.5 |
| 20260505023223 | 62 | 112 | 2.0 | 4.0 | 0.00 | 0.00 | 0.00 | 47 | 1007.4 |
| 20260505022721 | 62 | 246 | 1.0 | 2.0 | 0.00 | 0.00 | 0.00 | 48 | 1007.6 |
| 20260505022217 | 62 | 185 | 4.0 | 6.0 | 0.00 | 0.00 | 0.00 | 47 | 1007.7 |
| 20260505021714 | 62 | 104 | 3.0 | 3.0 | 0.00 | 0.00 | 0.00 | 47 | 1007.6 |
| 20260505021211 | 62 | 106 | 3.0 | 6.0 | 0.00 | 0.00 | 0.00 | 47 | 1007.6 |
| 20260505020707 | 62 | 180 | 3.0 | 4.0 | 0.00 | 0.00 | 0.00 | 47 | 1007.7 |
| 20260505020202 | 62 | 99 | 2.0 | 2.0 | 0.00 | 0.00 | 0.00 | 47 | 1007.5 |
| 20260505015700 | 62 | 204 | 2.0 | 4.0 | 0.00 | 0.00 | 0.00 | 46 | 1007.6 |
| 20260505015156 | 62 | 205 | 7.0 | 9.0 | 0.00 | 0.00 | 0.00 | 46 | 1007.6 |
| 20260505014654 | 62 | 103 | 1.0 | 2.0 | 0.00 | 0.00 | 0.00 | 46 | 1007.3 |
| 20260505014151 | 62 | 200 | 2.0 | 3.0 | 0.00 | 0.00 | 0.00 | 46 | 1007.4 |
| 20260505013648 | 62 | 138 | 2.0 | 6.0 | 0.00 | 0.00 | 0.00 | 45 | 1007.3 |
| 20260505013145 | 63 | 144 | 1.0 | 4.0 | 0.00 | 0.00 | 0.00 | 45 | 1007.3 |
| 20260505012643 | 62 | 104 | 1.0 | 6.0 | 0.00 | 0.00 | 0.00 | 44 | 1007.1 |
| 20260505012140 | 61 | 125 | 1.0 | 4.0 | 0.00 | 0.00 | 0.00 | 45 | 1007.0 |
| 20260505011635 | 60 | 164 | 1.0 | 9.0 | 0.00 | 0.00 | 0.00 | 46 | 1007.0 |
| 20260505011134 | 61 | 144 | 0.0 | 0.0 | 0.00 | 0.00 | 0.00 | 46 | 1006.8 |
| 20260505010633 | 62 | 115 | 0.0 | 0.0 | 0.00 | 0.00 | 0.00 | 44 | 1006.7 |
| 20260505010130 | 63 | 137 | 0.0 | 0.0 | 0.00 | 0.00 | 0.00 | 43 | 1006.5 |
| 20260505005626 | 63 | 150 | 0.0 | 0.0 | 0.00 | 0.00 | 0.00 | 42 | 1006.5 |
| 20260505005124 | 64 | 135 | 0.0 | 0.0 | 0.00 | 0.00 | 0.00 | 40 | 1006.2 |
| 20260505004621 | 64 | 78 | 1.0 | 2.0 | 0.00 | 0.00 | 0.00 | 39 | 1006.4 |
| 20260505004117 | 64 | 160 | 0.0 | 1.0 | 0.00 | 0.00 | 0.00 | 40 | 1006.2 |
| 20260505003614 | 65 | 120 | 0.0 | 0.0 | 0.00 | 0.00 | 0.00 | 39 | 1006.2 |
| 20260505003112 | 65 | 134 | 1.0 | 2.0 | 0.00 | 0.00 | 0.00 | 39 | 1005.7 |
| 20260505002608 | 65 | 139 | 1.0 | 2.0 | 0.00 | 0.00 | 0.00 | 38 | 1005.7 |
| 20260505002107 | 65 | 73 | 0.0 | 1.0 | 0.00 | 0.00 | 0.00 | 38 | 1005.7 |
| 20260505001603 | 66 | 141 | 0.0 | 1.0 | 0.00 | 0.00 | 0.00 | 38 | 1005.6 |
| 20260505001101 | 66 | 135 | 0.0 | 2.0 | 0.00 | 0.00 | 0.00 | 36 | 1005.5 |
| 20260505000558 | 66 | 229 | 0.0 | 1.0 | 0.00 | 0.00 | 0.00 | 36 | 1005.5 |
| 20260505000055 | 67 | 97 | 0.0 | 0.0 | 0.00 | 0.00 | 0.00 | 36 | 1005.2 |
| 20260504235552 | 67 | 112 | 0.0 | 1.0 | 0.00 | 0.00 | 0.00 | 35 | 1005.2 |
| 20260504235048 | 67 | 244 | 1.0 | 2.0 | 0.00 | 0.00 | 0.00 | 35 | 1005.1 |
| 20260504234545 | 68 | 130 | 0.0 | 4.0 | 0.00 | 0.00 | 0.00 | 35 | 1005.0 |
| 20260504234043 | 68 | 163 | 0.0 | 3.0 | 0.00 | 0.00 | 0.00 | 34 | 1005.1 |
| 20260504233538 | 68 | 158 | 1.0 | 2.0 | 0.00 | 0.00 | 0.00 | 34 | 1005.2 |
| 20260504233035 | 68 | 225 | 4.0 | 4.0 | 0.00 | 0.00 | 0.00 | 33 | 1004.8 |
| 20260504232532 | 69 | 134 | 0.0 | 2.0 | 0.00 | 0.00 | 0.00 | 33 | 1005.2 |
| 20260504232030 | 69 | 239 | 1.0 | 6.0 | 0.00 | 0.00 | 0.00 | 32 | 1005.0 |
| 20260504231526 | 70 | 134 | 0.0 | 2.0 | 0.00 | 0.00 | 0.00 | 32 | 1004.7 |
| 20260504231022 | 70 | 97 | 1.0 | 6.0 | 0.00 | 0.00 | 0.00 | 31 | 1004.8 |
| 20260504230519 | 71 | 151 | 0.0 | 3.0 | 0.00 | 0.00 | 0.00 | 31 | 1004.7 |
| 20260504230018 | 71 | 164 | 1.0 | 2.0 | 0.00 | 0.00 | 0.00 | 31 | 1004.4 |
| 20260504225514 | 71 | 163 | 2.0 | 3.0 | 0.00 | 0.00 | 0.00 | 31 | 1004.6 |
| 20260504225011 | 72 | 193 | 4.0 | 6.0 | 0.00 | 0.00 | 0.00 | 30 | 1004.4 |
| 20260504224508 | 72 | 195 | 2.0 | 3.0 | 0.00 | 0.00 | 0.00 | 31 | 1004.1 |
| 20260504224005 | 71 | 102 | 3.0 | 3.0 | 0.00 | 0.00 | 0.00 | 30 | 1004.3 |
| 20260504223501 | 71 | 327 | 1.0 | 6.0 | 0.00 | 0.00 | 0.00 | 30 | 1004.3 |
| 20260504222957 | 72 | 31 | 2.0 | 6.0 | 0.00 | 0.00 | 0.00 | 30 | 1004.2 |
| 20260504222455 | 72 | 227 | 2.0 | 9.0 | 0.00 | 0.00 | 0.00 | 30 | 1004.3 |
| 20260504221952 | 73 | 315 | 4.0 | 6.0 | 0.00 | 0.00 | 0.00 | 29 | 1004.3 |
| 20260504221449 | 73 | 280 | 6.0 | 7.0 | 0.00 | 0.00 | 0.00 | 29 | 1004.2 |
| 20260504220946 | 72 | 206 | 4.0 | 13.0 | 0.00 | 0.00 | 0.00 | 29 | 1004.3 |
| 20260504220442 | 73 | 94 | 2.0 | 8.0 | 0.00 | 0.00 | 0.00 | 29 | 1004.3 |
| 20260504215939 | 73 | 278 | 6.0 | 10.0 | 0.00 | 0.00 | 0.00 | 29 | 1004.2 |
| 20260504215436 | 73 | 276 | 3.0 | 13.0 | 0.00 | 0.00 | 0.00 | 28 | 1004.4 |
| 20260504214933 | 73 | 290 | 2.0 | 7.0 | 0.00 | 0.00 | 0.00 | 29 | 1004.2 |
| 20260504214429 | 72 | 260 | 3.0 | 6.0 | 0.00 | 0.00 | 0.00 | 29 | 1004.3 |
| 20260504213926 | 72 | 310 | 9.0 | 11.0 | 0.00 | 0.00 | 0.00 | 29 | 1004.1 |
| 20260504213422 | 73 | 187 | 3.0 | 4.0 | 0.00 | 0.00 | 0.00 | 28 | 1004.4 |
| 20260504212920 | 73 | 163 | 4.0 | 10.0 | 0.00 | 0.00 | 0.00 | 28 | 1004.2 |
| 20260504212415 | 74 | 312 | 8.0 | 15.0 | 0.00 | 0.00 | 0.00 | 28 | 1004.2 |
| 20260504211913 | 73 | 336 | 10.0 | 11.0 | 0.00 | 0.00 | 0.00 | 28 | 1004.4 |
| 20260504211409 | 74 | 290 | 7.0 | 10.0 | 0.00 | 0.00 | 0.00 | 28 | 1004.4 |
| 20260504210906 | 74 | 266 | 3.0 | 7.0 | 0.00 | 0.00 | 0.00 | 27 | 1004.3 |
| 20260504210403 | 74 | 291 | 2.0 | 4.0 | 0.00 | 0.00 | 0.00 | 27 | 1004.3 |
| 20260504205900 | 74 | 139 | 4.0 | 7.0 | 0.00 | 0.00 | 0.00 | 27 | 1004.2 |
| 20260504205358 | 73 | 235 | 5.0 | 8.0 | 0.00 | 0.00 | 0.00 | 28 | 1004.2 |
| 20260504204856 | 73 | 306 | 6.0 | 9.0 | 0.00 | 0.00 | 0.00 | 28 | 1004.4 |
| 20260504204354 | 73 | 320 | 4.0 | 7.0 | 0.00 | 0.00 | 0.00 | 29 | 1004.3 |
| 20260504203854 | 73 | 184 | 4.0 | 7.0 | 0.00 | 0.00 | 0.00 | 29 | 1004.2 |
| 20260504203350 | 71 | 202 | 1.0 | 6.0 | 0.00 | 0.00 | 0.00 | 30 | 1004.4 |
| 20260504202846 | 72 | 291 | 2.0 | 11.0 | 0.00 | 0.00 | 0.00 | 28 | 1004.4 |
| 20260504202343 | 73 | 254 | 4.0 | 11.0 | 0.00 | 0.00 | 0.00 | 28 | 1004.4 |
| 20260504201839 | 73 | 238 | 7.0 | 14.0 | 0.00 | 0.00 | 0.00 | 28 | 1004.4 |
| 20260504201337 | 72 | 302 | 2.0 | 11.0 | 0.00 | 0.00 | 0.00 | 29 | 1004.3 |
| 20260504200834 | 73 | 294 | 4.0 | 8.0 | 0.00 | 0.00 | 0.00 | 29 | 1004.6 |
| 20260504200331 | 74 | 216 | 2.0 | 7.0 | 0.00 | 0.00 | 0.00 | 29 | 1004.3 |
| 20260504195827 | 73 | 241 | 2.0 | 7.0 | 0.00 | 0.00 | 0.00 | 29 | 1004.3 |
| 20260504195323 | 73 | 230 | 14.0 | 17.0 | 0.00 | 0.00 | 0.00 | 27 | 1004.5 |
| 20260504194820 | 73 | 235 | 3.0 | 8.0 | 0.00 | 0.00 | 0.00 | 29 | 1004.5 |
| 20260504194316 | 74 | 309 | 11.0 | 18.0 | 0.00 | 0.00 | 0.00 | 27 | 1004.4 |
| 20260504193812 | 73 | 244 | 4.0 | 6.0 | 0.00 | 0.00 | 0.00 | 28 | 1004.3 |
| 20260504193309 | 73 | 330 | 9.0 | 11.0 | 0.00 | 0.00 | 0.00 | 28 | 1004.5 |
| 20260504192808 | 74 | 168 | 2.0 | 7.0 | 0.00 | 0.00 | 0.00 | 28 | 1004.5 |
| 20260504192305 | 73 | 208 | 5.0 | 13.0 | 0.00 | 0.00 | 0.00 | 29 | 1004.5 |
| 20260504191804 | 72 | 270 | 4.0 | 8.0 | 0.00 | 0.00 | 0.00 | 29 | 1004.4 |
| 20260504191301 | 73 | 262 | 5.0 | 7.0 | 0.00 | 0.00 | 0.00 | 29 | 1004.5 |
| 20260504190756 | 73 | 269 | 5.0 | 9.0 | 0.00 | 0.00 | 0.00 | 28 | 1004.5 |
| 20260504190253 | 71 | 235 | 4.0 | 8.0 | 0.00 | 0.00 | 0.00 | 29 | 1004.4 |
| 20260504185749 | 71 | 284 | 4.0 | 6.0 | 0.00 | 0.00 | 0.00 | 29 | 1004.6 |
| 20260504185246 | 72 | 265 | 5.0 | 16.0 | 0.00 | 0.00 | 0.00 | 28 | 1004.5 |
| 20260504184742 | 73 | 294 | 9.0 | 15.0 | 0.00 | 0.00 | 0.00 | 28 | 1004.8 |
| 20260504184238 | 71 | 260 | 1.0 | 9.0 | 0.00 | 0.00 | 0.00 | 30 | 1004.8 |
| 20260504183734 | 72 | 111 | 2.0 | 6.0 | 0.00 | 0.00 | 0.00 | 29 | 1004.6 |
| 20260504183231 | 71 | 298 | 5.0 | 7.0 | 0.00 | 0.00 | 0.00 | 28 | 1004.6 |
| 20260504182729 | 73 | 283 | 3.0 | 13.0 | 0.00 | 0.00 | 0.00 | 27 | 1004.8 |
| 20260504182226 | 73 | 202 | 3.0 | 13.0 | 0.00 | 0.00 | 0.00 | 27 | 1004.9 |
| 20260504181724 | 73 | 221 | 3.0 | 10.0 | 0.00 | 0.00 | 0.00 | 29 | 1004.8 |
| 20260504181221 | 72 | 207 | 5.0 | 7.0 | 0.00 | 0.00 | 0.00 | 27 | 1004.8 |
| 20260504180720 | 72 | 177 | 3.0 | 15.0 | 0.00 | 0.00 | 0.00 | 29 | 1005.0 |
| 20260504180218 | 72 | 276 | 4.0 | 8.0 | 0.00 | 0.00 | 0.00 | 28 | 1004.9 |
| 20260504175716 | 73 | 223 | 6.0 | 16.0 | 0.00 | 0.00 | 0.00 | 27 | 1004.7 |
| 20260504175212 | 72 | 206 | 3.0 | 4.0 | 0.00 | 0.00 | 0.00 | 29 | 1004.8 |
| 20260504174710 | 72 | 277 | 4.0 | 9.0 | 0.00 | 0.00 | 0.00 | 27 | 1004.8 |
| 20260504174208 | 71 | 296 | 1.0 | 6.0 | 0.00 | 0.00 | 0.00 | 29 | 1005.1 |
| 20260504173704 | 71 | 238 | 6.0 | 11.0 | 0.00 | 0.00 | 0.00 | 29 | 1005.0 |
| 20260504173201 | 71 | 224 | 4.0 | 19.0 | 0.00 | 0.00 | 0.00 | 28 | 1004.9 |
| 20260504172658 | 70 | 207 | 2.0 | 7.0 | 0.00 | 0.00 | 0.00 | 29 | 1004.9 |
| 20260504172154 | 70 | 126 | 3.0 | 7.0 | 0.00 | 0.00 | 0.00 | 30 | 1005.0 |
| 20260504171650 | 70 | 287 | 4.0 | 13.0 | 0.00 | 0.00 | 0.00 | 28 | 1005.1 |
| 20260504171148 | 70 | 267 | 4.0 | 8.0 | 0.00 | 0.00 | 0.00 | 29 | 1005.3 |
| 20260504170644 | 71 | 271 | 5.0 | 7.0 | 0.00 | 0.00 | 0.00 | 28 | 1005.2 |
| 20260504170142 | 70 | 236 | 2.0 | 9.0 | 0.00 | 0.00 | 0.00 | 30 | 1005.3 |
| 20260504151021 | 67 | 256 | 1.0 | 8.0 | 0.00 | 0.00 | 0.00 | 33 | 1006.3 |
| 20260504150519 | 67 | 187 | 3.0 | 8.0 | 0.00 | 0.00 | 0.00 | 33 | 1006.4 |
| 20260504140945 | 62 | 229 | 4.0 | 16.0 | 0.00 | 0.00 | 0.00 | 38 | 1007.3 |
| 20260504140442 | 62 | 196 | 7.0 | 10.0 | 0.00 | 0.00 | 0.00 | 38 | 1007.5 |
| 20260504130406 | 60 | 187 | 1.0 | 6.0 | 0.00 | 0.00 | 0.00 | 40 | 1007.7 |
| 20260504110253 | 44 | 127 | 0.0 | 1.0 | 0.00 | 0.00 | 0.00 | 66 | 1008.3 |
| 20260504100216 | 42 | 135 | 0.0 | 0.0 | 0.00 | 0.00 | 0.00 | 69 | 1008.3 |
| 20260504090139 | 41 | 189 | 0.0 | 0.0 | 0.00 | 0.00 | 0.00 | 72 | 1008.3 |
| 20260504081609 | 41 | 144 | 0.0 | 0.0 | 0.00 | 0.00 | 0.00 | 77 | 1008.3 |
| 20260504081105 | 41 | 152 | 0.0 | 0.0 | 0.00 | 0.00 | 0.00 | 76 | 1008.4 |
| 20260504080602 | 41 | 107 | 0.0 | 0.0 | 0.00 | 0.00 | 0.00 | 76 | 1008.3 |